Weather History for Orangeburg, SC

Change the Weather History Date:

Sunday, December 15, 2013

  Actual Average Record
Temperature  
Mean Temperature 51 °F 48 °F  
Max Temperature 60 °F 59 °F 77 °F (1984)
Min Temperature 42 °F 37 °F 17 °F (1962)
Degree Days  
Heating Degree Days 14 17  
Month to date heating degree days 170 235  
Since 1 July heating degree days 566 604  
Cooling Degree Days 0 0  
Month to date cooling degree days 7 0  
Year to date cooling degree days 2049 2102  
Growing Degree Days 2 (Base 50)    
Moisture  
Dew Point 45 °F    
Average Humidity 75    
Maximum Humidity 90    
Minimum Humidity 55    
Precipitation  
Precipitation 0.03 in 0.11 in 1.59 in (2007)
Month to date precipitation 2.47 1.67  
Year to date precipitation 53.63 45.08  
Sea Level Pressure  
Sea Level Pressure 29.94 in    
Wind  
Wind Speed 9 mph (WNW)    
Max Wind Speed 23 mph    
Max Gust Speed 31 mph    
Visibility 10 miles    
Events Rain    
T = Trace of Precipitation, MM = Missing Value Source: NWS Daily Summary

Daily Weather History Graph

Daily Weather History Graph

Search for Another Location

Airport:

Trip Planner

Search our weather history database for the weather conditions in past years. The results will help you decide how hot, cold, wet, or windy it might be!

Date:

Astronomy

Dec. 15, 2013 Rise Set
Actual Time 7:20 AM EST 5:17 PM EST
Civil Twilight 6:52 AM EST 5:44 PM EST
Nautical Twilight 6:21 AM EST 6:15 PM EST
Astronomical Twilight 5:51 AM EST 6:46 PM EST
Moon 4:17 PM EST (12/15) 5:38 AM EST (12/15)
Length of Visible Light 10h 52m
Length of Day
9h 57m
Waxing Gibbous, 97% of the Moon is Illuminated
Dec 15
Waxing Gibbous
Dec 17
Full
Dec 25
Last Quarter
Jan 1
New
Jan 7
First Quarter

Hourly Weather History & Observations

Time (EST) Temp. Windchill Dew Point Humidity Pressure Visibility Wind Dir Wind Speed Gust Speed Precip Events Conditions
12:53 AM 60.1 °F - 57.0 °F 90% 29.81 in 9.0 mi WNW 4.6 mph - N/A   Overcast
1:53 AM 57.9 °F - 54.0 °F 87% 29.84 in 10.0 mi WNW 11.5 mph - N/A   Overcast
2:18 AM 57.0 °F - 53.1 °F 87% 29.85 in 10.0 mi WNW 11.5 mph - N/A   Overcast
2:53 AM 55.9 °F - 52.0 °F 87% 29.86 in 10.0 mi West 9.2 mph - 0.00 in Rain Light Rain
3:53 AM 55.0 °F - 52.0 °F 89% 29.80 in 9.0 mi South 4.6 mph - 0.01 in Rain Light Rain
4:53 AM 55.9 °F - 52.0 °F 87% 29.81 in 10.0 mi WSW 9.2 mph - 0.01 in Rain Light Rain
5:53 AM 55.9 °F - 52.0 °F 87% 29.81 in 10.0 mi WSW 11.5 mph - 0.01 in   Mostly Cloudy
6:46 AM 55.9 °F - 52.0 °F 87% 29.85 in 10.0 mi WSW 10.4 mph - N/A   Mostly Cloudy
6:53 AM 55.9 °F - 52.0 °F 87% 29.85 in 10.0 mi WSW 11.5 mph - N/A   Mostly Cloudy
7:53 AM 55.9 °F - 51.1 °F 84% 29.86 in 10.0 mi WNW 10.4 mph - 0.00 in   Overcast
8:26 AM 55.0 °F - 48.0 °F 77% 29.90 in 10.0 mi WNW 11.5 mph 19.6 mph N/A   Overcast
8:53 AM 54.0 °F - 46.9 °F 77% 29.91 in 10.0 mi WNW 11.5 mph 19.6 mph N/A   Overcast
9:53 AM 55.0 °F - 46.0 °F 72% 29.93 in 10.0 mi West 16.1 mph 23.0 mph N/A   Mostly Cloudy
10:11 AM 54.0 °F - 45.0 °F 72% 29.94 in 10.0 mi WNW 15.0 mph - N/A   Mostly Cloudy
10:53 AM 54.0 °F - 43.0 °F 66% 29.94 in 10.0 mi West 13.8 mph 28.8 mph N/A   Overcast
11:14 AM 53.1 °F - 41.0 °F 64% 29.95 in 10.0 mi West 19.6 mph 28.8 mph N/A   Scattered Clouds
11:53 AM 54.0 °F - 39.9 °F 59% 29.95 in 10.0 mi WNW 17.3 mph - N/A   Mostly Cloudy
12:53 PM 54.0 °F - 39.9 °F 59% 29.94 in 10.0 mi West 13.8 mph - N/A   Overcast
1:53 PM 53.1 °F - 39.9 °F 61% 29.94 in 10.0 mi NNW 9.2 mph 18.4 mph N/A   Overcast
2:53 PM 54.0 °F - 39.9 °F 59% 29.94 in 10.0 mi WNW 11.5 mph - N/A   Partly Cloudy
3:53 PM 55.0 °F - 39.0 °F 55% 29.96 in 10.0 mi WNW 12.7 mph - N/A   Clear
4:53 PM 53.1 °F - 39.9 °F 61% 29.98 in 10.0 mi West 9.2 mph - N/A   Clear
5:53 PM 48.9 °F - 39.9 °F 71% 30.01 in 10.0 mi West 5.8 mph - N/A   Clear
6:53 PM 48.0 °F - 39.9 °F 74% 30.04 in 10.0 mi West 6.9 mph - N/A   Clear
7:53 PM 48.0 °F - 39.0 °F 71% 30.06 in 10.0 mi WNW 4.6 mph - N/A   Clear
8:53 PM 46.0 °F 43.1 °F 37.9 °F 73% 30.09 in 10.0 mi North 5.8 mph - N/A   Partly Cloudy
9:53 PM 44.1 °F 42.5 °F 37.9 °F 79% 30.11 in 10.0 mi WNW 3.5 mph - N/A   Clear
10:53 PM 43.0 °F 40.3 °F 36.0 °F 76% 30.14 in 10.0 mi WNW 4.6 mph - N/A   Clear
11:53 PM 42.1 °F 39.2 °F 35.1 °F 76% 30.15 in 10.0 mi NW 4.6 mph - N/A   Clear